Theta_e
355 358 355 350 335 343 341 339 340 335 343 346 348 338 340 341 341 341 341 340 340 340 342 344 344 344 343 346 346 343 342 345 344 347 346 346 346 346 343 345 343 344 343
358 357 355 349 339 344 340 340 338 346 342 347 343 340 336 337 337 338 340 341 340 343 343 345 344 345 344 343 341 340 341 345 343 342 341 342 341 342 345 344 345 344 344
360 358 356 351 347 344 338 341 336 345 336 344 337 332 336 339 339 340 341 339 337 338 345 344 344 345 343 343 345 345 346 344 342 344 344 344 344 343 344 345 340 345 344
363 362 359 353 351 344 340 344 342 346 341 346 340 346 348 346 343 344 340 340 339 343 343 344 342 344 342 345 345 344 344 341 342 343 343 344 341 344 343 344 344 344 344
362 360 358 354 350 348 352 341 353 353 341 347 348 343 343 347 347 341 340 338 338 343 340 340 342 342 342 342 340 340 341 342 342 340 341 342 341 342 343 342 344 345 344
358 360 358 351 354 353 352 349 353 354 345 346 349 347 347 347 346 340 339 335 342 343 338 342 343 339 340 341 341 342 342 342 342 341 342 342 342 342 345 343 343 342 343
359 359 356 348 352 351 354 353 353 353 352 350 347 348 345 345 342 342 338 335 340 342 339 343 342 342 342 342 342 342 342 343 342 343 342 342 342 342 342 342 343 342 340
358 355 352 350 349 351 354 355 352 353 350 350 351 347 345 345 341 342 338 341 342 341 336 341 341 342 342 342 341 341 341 342 342 342 342 343 343 343 342 342 341 342 340
353 355 350 348 348 350 353 355 353 351 351 349 346 346 343 345 339 334 341 337 338 341 340 342 343 343 343 341 342 340 341 342 342 342 341 341 342 343 343 342 342 342 340
355 352 345 348 348 347 349 355 354 351 349 347 343 346 343 336 332 341 341 338 338 340 336 340 344 342 339 341 340 337 338 338 338 339 341 342 341 340 340 342 341 342 341
352 350 350 354 352 353 356 353 349 350 349 346 343 346 345 343 336 339 336 335 339 341 339 339 339 339 338 337 339 338 334 335 337 338 340 340 341 341 340 341 340 341 340
349 351 353 355 355 354 352 352 349 351 348 343 341 341 343 342 341 340 334 337 339 338 339 339 337 336 336 337 337 335 333 333 336 336 337 338 336 337 338 340 341 340 341
349 348 352 354 355 352 348 350 350 349 347 338 341 343 345 343 342 342 339 337 338 338 337 336 337 336 336 336 336 336 334 332 332 331 333 337 337 337 337 337 338 339 339
349 350 352 359 356 352 346 349 348 346 344 342 346 344 345 343 342 341 340 338 338 338 336 336 336 336 336 334 334 333 334 332 324 323 324 329 333 334 334 335 333 336 336
350 355 356 358 354 347 350 349 348 346 344 343 345 346 345 343 343 342 341 340 340 338 336 336 336 334 333 329 334 333 331 332 325 323 323 322 323 328 328 332 333 332 334
349 354 354 356 353 345 347 349 348 346 341 346 343 345 345 343 343 341 342 340 339 335 337 338 337 333 327 326 330 329 327 327 327 326 326 327 325 323 324 330 333 333 330
345 347 353 355 352 346 347 350 347 347 343 343 345 344 342 344 344 343 342 342 339 336 337 336 336 332 327 327 326 328 328 327 327 328 327 328 328 325 322 322 322 325 327
345 347 351 352 354 348 348 349 348 346 346 345 344 344 341 341 341 343 343 342 340 338 336 336 336 333 327 327 326 328 329 327 327 325 323 323 323 323 320 318 317 317 319
353 353 355 352 352 348 349 347 348 347 345 344 343 343 340 341 340 341 343 342 341 339 336 336 335 334 327 327 327 330 331 329 328 326 324 323 322 322 322 320 318 316 316
350 351 353 352 350 348 349 348 346 342 346 342 342 337 335 339 343 344 343 342 341 340 339 335 335 334 328 327 327 329 330 329 327 324 323 323 322 321 322 324 323 322 320
347 353 352 351 351 350 347 347 343 340 340 338 335 332 335 340 338 338 339 340 341 341 339 336 335 334 330 327 327 328 330 328 325 326 326 323 321 319 317 318 323 324 313
347 350 350 350 349 348 347 346 345 340 335 336 332 332 336 337 337 335 335 338 339 341 339 336 335 333 330 329 327 327 327 326 327 326 325 323 321 316 314 313 309 310 315
344 345 346 344 344 345 346 345 344 344 338 336 338 339 336 336 336 335 339 339 340 341 339 336 334 332 331 329 329 328 327 326 326 326 325 324 320 314 313 310 311 313 314
344 345 343 341 341 341 342 341 342 342 341 337 334 334 334 335 335 336 336 338 338 338 339 336 333 331 330 329 329 327 326 326 326 326 324 322 316 315 315 313 312 312 311
342 342 341 340 339 335 334 335 336 338 339 338 338 338 337 336 336 335 334 334 337 336 337 335 334 332 330 329 327 328 327 327 326 325 323 319 313 316 317 314 313 312 312
341 340 339 339 337 334 329 326 332 334 334 335 335 334 334 334 334 334 334 333 334 334 335 333 332 331 330 330 328 326 326 324 323 321 320 315 318 319 318 315 313 312 311
Wind_Speed
23 23 12 0 7 4 7 6 6 7 2 3 7 11 11 10 4 4 5 4 6 6 10 9 10 11 12 11 11 12 9 10 12 16 16 15 15 20 21 21 18 19 19
26 21 15 7 2 2 1 2 8 7 8 9 6 7 12 16 17 14 9 4 2 5 6 6 5 7 8 9 9 11 12 18 17 20 18 19 20 24 24 23 21 19 18
23 16 14 10 6 3 3 7 10 7 7 8 7 10 13 11 8 7 6 5 4 5 7 8 6 10 9 5 12 10 13 16 15 14 14 6 8 9 16 18 18 22 20
16 8 11 7 7 8 8 12 9 7 9 9 4 11 2 1 4 4 5 4 3 3 7 9 9 9 10 13 14 15 16 16 16 15 17 19 16 7 4 13 18 13 10
14 11 12 5 4 5 7 9 9 8 10 13 5 5 3 2 2 2 3 4 7 2 9 9 8 9 10 9 9 10 11 12 13 14 15 15 17 17 13 3 9 7 10
14 13 12 8 10 8 7 6 9 11 11 12 9 5 4 8 2 2 2 4 4 8 10 8 7 5 3 4 4 5 7 7 9 9 8 7 9 11 12 8 6 5 6
16 16 10 13 10 13 13 10 13 13 13 11 9 8 5 4 4 3 5 4 3 10 7 7 6 5 4 3 4 4 3 7 7 6 5 8 9 9 8 11 11 10 10
14 13 11 13 14 16 16 16 13 12 12 12 11 8 5 5 5 6 3 5 5 10 8 4 3 4 5 8 9 7 6 5 5 6 6 1 6 7 8 9 15 15 12
15 12 10 10 12 14 13 12 11 10 11 11 10 7 7 9 5 10 8 5 3 3 9 5 6 6 7 7 5 5 2 5 8 9 7 6 5 2 3 7 10 15 12
14 12 10 11 11 11 10 11 8 7 10 11 8 8 3 5 7 6 6 1 5 5 5 7 7 7 5 6 4 7 6 4 6 8 9 10 8 6 5 6 6 11 9
13 10 10 11 10 10 10 8 6 10 13 9 10 9 6 4 9 7 5 3 7 7 9 9 9 9 12 11 9 10 8 9 9 10 9 8 8 11 8 6 5 7 9
11 9 9 12 10 10 9 9 9 12 11 8 10 11 7 7 9 7 5 5 7 7 7 7 7 6 6 9 7 7 9 11 14 12 10 14 7 7 8 10 8 7 6
5 7 7 8 15 17 12 8 8 9 11 13 10 12 9 7 8 8 7 5 8 6 5 6 6 5 7 8 8 10 12 11 12 11 11 12 14 17 12 9 8 7 5
4 5 8 10 10 8 6 10 9 9 13 15 11 11 11 9 8 6 5 6 7 5 4 6 6 7 6 7 8 8 10 8 14 15 15 14 14 15 14 12 12 8 6
4 7 6 7 10 7 9 9 9 12 11 16 15 14 13 10 9 7 4 5 7 5 6 5 7 5 3 5 9 5 8 7 11 13 14 15 13 10 10 11 11 12 8
5 7 6 7 12 9 11 11 12 13 15 13 15 15 16 13 11 8 9 7 6 5 7 6 4 4 2 5 7 5 6 8 10 13 13 12 12 12 12 11 9 9 10
4 5 6 7 12 11 12 12 11 14 16 17 14 16 15 16 14 11 11 11 10 7 8 8 6 2 2 3 4 7 6 7 8 10 11 5 9 8 9 8 7 7 8
4 4 5 7 11 11 11 11 12 13 15 18 20 19 15 17 15 15 11 14 11 10 8 9 8 4 4 4 5 6 5 6 5 4 6 6 6 5 8 8 8 8 7
4 4 3 7 12 12 14 12 13 14 18 15 16 15 11 13 18 17 16 13 14 12 10 11 11 9 6 6 7 7 5 3 5 2 3 4 4 5 5 6 7 7 7
7 4 5 8 14 12 9 6 5 7 13 12 15 12 15 15 17 17 15 14 15 11 11 12 11 11 8 8 7 10 8 4 2 4 3 2 2 3 4 5 5 4 5
7 6 10 9 10 10 8 5 5 4 9 15 13 14 14 12 11 9 15 13 14 12 12 13 14 13 10 10 10 13 13 8 3 2 2 2 2 3 4 3 4 5 1
8 6 12 15 12 9 5 6 5 9 10 18 17 14 11 14 15 12 12 10 11 16 15 17 17 14 13 11 13 13 13 11 11 11 9 4 4 4 3 0 1 6 8
9 8 6 2 3 8 7 11 15 15 18 17 19 19 16 14 16 15 11 13 17 18 18 21 14 13 15 15 13 14 13 13 13 11 8 6 7 5 3 4 9 8 4
10 8 6 5 3 1 5 10 16 16 16 18 20 20 20 20 20 19 18 18 19 20 21 22 15 17 12 14 14 14 13 12 11 10 9 9 8 5 2 5 4 1 4
7 5 3 4 3 5 3 5 6 7 8 11 14 15 16 16 16 17 20 20 19 19 23 22 20 20 18 16 11 13 12 13 12 11 11 11 10 7 6 6 3 2 3
7 5 5 6 6 8 7 6 4 4 7 8 10 11 13 12 14 16 16 17 19 20 24 25 20 20 17 17 16 12 11 11 12 11 11 12 10 7 9 11 6 5 7
Wind_Direction
165 155 174 46 10 48 9 355 69 133 132 150 50 45 53 66 103 308 228 247 284 264 263 270 261 259 255 256 253 264 263 260 242 259 263 255 257 254 263 251 247 248 261
157 168 176 156 126 31 118 87 149 133 141 87 112 113 85 84 76 69 70 58 3 289 286 291 287 265 262 271 287 283 270 261 268 257 268 267 267 256 250 241 242 242 253
140 174 193 191 235 117 165 205 181 148 134 132 132 108 83 63 66 91 74 70 55 351 345 321 300 287 292 304 297 285 280 281 273 258 247 246 248 288 240 245 210 241 233
130 178 243 218 270 180 187 188 189 179 144 126 112 98 72 77 21 73 65 17 344 282 291 297 281 265 272 248 259 270 286 287 277 267 255 248 252 279 285 226 224 221 222
145 187 217 223 194 186 195 187 180 182 167 151 170 159 175 101 156 99 88 46 21 353 310 289 284 276 281 278 272 273 283 283 283 275 267 262 246 248 260 247 213 223 227
156 176 187 164 180 194 213 209 189 202 173 166 182 173 168 149 228 92 94 74 21 306 320 317 335 351 322 308 305 299 306 312 301 289 271 258 263 236 236 239 188 159 95
156 158 176 174 198 180 195 190 205 202 191 170 191 169 167 150 95 42 36 99 91 306 316 334 354 7 26 350 325 310 318 325 333 312 273 248 257 248 240 224 191 169 165
161 162 180 193 200 180 184 196 208 193 195 179 186 184 153 154 163 159 119 101 41 346 323 283 3 359 26 35 40 32 20 3 5 10 23 324 245 239 238 208 211 170 162
167 170 179 188 176 179 184 202 206 199 198 210 207 165 171 147 115 107 88 58 159 338 341 33 45 52 65 68 42 349 21 43 39 38 33 30 51 103 203 200 209 214 178
174 162 171 170 180 189 189 208 219 221 201 213 183 149 142 161 119 117 117 248 73 26 8 53 48 34 60 110 15 353 47 70 61 55 50 56 58 70 98 155 177 197 193
166 161 162 167 160 165 171 212 221 211 207 208 161 134 145 150 122 123 117 97 88 70 52 57 53 42 43 55 39 11 45 58 62 61 57 60 52 72 84 98 136 164 180
157 167 160 170 159 167 171 198 219 202 210 168 149 147 188 153 133 126 107 99 101 90 95 82 71 55 71 83 53 17 56 66 63 58 64 64 69 91 80 100 108 138 170
141 172 163 168 161 176 175 175 203 207 188 163 164 159 167 160 147 148 138 108 89 85 68 91 92 86 74 77 82 43 43 54 63 63 71 76 74 66 62 64 91 102 129
139 151 156 144 188 195 172 170 186 204 191 159 171 174 170 190 162 171 133 114 107 97 74 94 94 77 64 83 67 85 83 48 68 69 71 74 71 78 68 55 60 90 97
167 153 167 161 215 184 163 174 184 206 207 171 187 179 197 193 190 160 145 145 115 144 111 80 79 93 241 84 97 64 94 78 73 75 72 71 69 76 69 84 66 67 89
165 158 173 184 200 202 168 188 186 201 192 170 191 199 210 207 192 189 175 184 171 152 118 109 127 230 62 119 124 112 93 89 80 66 61 64 74 71 83 93 92 81 76
159 151 169 190 210 216 172 192 191 192 202 195 204 216 216 201 207 203 185 197 197 190 164 162 205 281 152 133 138 117 109 101 110 128 122 110 88 77 78 86 94 111 118
138 136 180 179 196 183 188 184 194 199 213 221 220 225 228 212 215 212 211 200 218 211 200 186 210 248 174 160 158 138 120 124 94 103 119 109 117 86 90 92 99 96 96
122 121 107 169 176 178 196 203 204 224 224 226 226 223 242 235 220 218 215 204 222 218 217 200 217 237 199 180 170 139 137 161 178 141 110 118 115 102 73 80 86 92 84
126 113 132 169 156 186 215 237 208 253 233 220 222 231 241 255 249 225 218 218 218 220 233 201 216 231 206 197 185 160 168 216 213 150 175 130 127 132 128 93 34 30 45
139 147 138 150 182 205 225 197 235 227 201 208 247 225 270 296 259 270 238 230 219 228 230 216 216 227 225 208 199 183 178 218 173 116 214 170 172 157 165 176 194 221 120
104 151 160 171 176 180 184 190 207 230 202 209 203 226 257 266 259 257 242 247 239 234 233 217 218 223 223 216 214 214 228 207 197 217 244 229 219 199 186 252 94 127 110
92 95 120 125 213 207 208 228 222 230 228 225 238 247 257 255 251 261 258 247 240 237 248 222 224 221 235 224 228 226 224 219 220 241 234 230 218 199 143 53 129 121 90
89 92 61 32 34 163 219 235 242 254 243 246 252 259 266 267 263 267 254 249 250 250 237 218 205 215 234 239 227 226 226 225 230 222 224 224 205 198 158 123 103 42 220
119 98 94 68 27 7 347 284 273 279 276 270 270 273 272 273 269 262 263 262 251 248 240 218 200 220 216 230 246 230 227 225 227 228 223 210 194 175 163 150 140 236 81
105 87 62 60 6 10 8 356 318 267 267 282 283 282 282 276 272 263 260 253 248 241 233 208 212 216 212 224 240 248 229 231 214 219 207 197 189 213 231 197 199 226 180